WS6A-13 Weather Reports


Display with metric or nautical units.
time (UTC)temp
F
wind
direction
speed
MPH
gust
MPH
rain 1hr
in
rain 24hr
in
rain mn
in
humidity
%
barometer
mb
20260504213004 73 247 1.0 5.0 0.00 0.00 0.00 59 1005.2
20260504211504 72 229 1.0 3.0 0.00 0.00 0.00 60 1005.4
20260504210004 71 244 0.0 3.0 0.00 0.00 0.00 62 1005.6
20260504204504 70 236 0.0 3.0 0.00 0.00 0.00 65 1005.8
20260504203004 70 59 0.0 2.0 0.00 0.00 0.00 70 1006.3
20260504201503 67 25 0.0 0.0 0.00 0.00 0.00 76 1006.4
20260504200004 65 26 0.0 0.0 0.00 0.00 0.00 79 1006.3
20260504194504 65 26 0.0 1.0 0.00 0.00 0.00 79 1006.6
20260504193004 65 310 0.0 0.0 0.00 0.00 0.00 76 1007.1
20260504191503 67 207 0.0 8.0 0.00 0.00 0.00 70 1006.9
20260504184504 69 266 0.0 7.0 0.00 0.00 0.00 65 1007.3
20260504180004 70 199 1.0 5.0 0.00 0.00 0.00 63 1006.4
20260504174503 69 245 1.0 3.0 0.00 0.00 0.00 66 1006.6
20260504173004 69 263 0.0 3.0 0.00 0.00 0.00 64 1006.7
20260504171504 68 258 0.0 2.0 0.00 0.00 0.00 68 1006.9
20260504081504 51 244 0.0 0.0 0.00 0.00 0.00 72 1009.6
20260504050004 52 82 0.0 0.0 0.00 0.00 0.00 70 1011.3
20260504044504 52 82 0.0 0.0 0.00 0.00 0.00 68 1011.5
20260504043004 53 87 0.0 0.0 0.00 0.00 0.00 67 1011.6
20260504034504 54 105 0.0 0.0 0.00 0.00 0.00 66 1012.1
20260504033003 53 106 0.0 0.0 0.00 0.00 0.00 68 1012.1
20260504031504 53 205 0.0 0.0 0.00 0.00 0.00 68 1012.2
20260504030003 53 205 0.0 0.0 0.00 0.00 0.00 71 1012.3
20260504024504 53 205 0.0 0.0 0.00 0.00 0.00 68 1012.5
20260504023004 53 205 0.0 0.0 0.00 0.00 0.00 68 1012.5
20260504021504 53 205 0.0 0.0 0.00 0.00 0.00 74 1012.6
20260504014504 53 205 0.0 0.0 0.00 0.00 0.00 76 1012.4
20260504010004 54 205 0.0 0.0 0.00 0.00 0.00 74 1012.5
20260504004504 54 205 0.0 0.0 0.00 0.00 0.00 68 1012.4
20260504003004 53 206 0.0 1.0 0.00 0.00 0.00 68 1012.3
20260504001504 53 111 0.0 0.0 0.00 0.00 0.00 72 1012.2
20260504000003 53 111 0.0 0.0 0.00 0.00 0.00 72 1012.0
20260503234504 54 111 0.0 0.0 0.00 0.00 0.00 70 1011.9
20260503233004 54 111 0.0 0.0 0.00 0.00 0.00 70 1012.2
20260503230004 55 112 0.0 0.0 0.00 0.00 0.00 67 1013.0
20260503224503 55 123 0.0 0.0 0.00 0.00 0.00 65 1013.3
20260503221503 57 65 0.0 0.0 0.00 0.00 0.00 58 1013.9
20260503220003 57 103 0.0 0.0 0.00 0.00 0.00 58 1013.7
20260503214504 56 76 0.0 0.0 0.00 0.00 0.00 61 1013.8